User: anonymous   Login
Location: *
(50.3440°N, 18.6237°E)
Time: 20:59:06
(UTC+00:00)
Language:

CSL-04 Rocket - Orbit

View from above orbital plane
View from above orbital plane
View from above satellite
View from above satellite

Ground track
Ground track

The orbit data is extracted from the following two-line orbital elements,

1 25732U 99025C   21058.48091241 -.00000028  00000-0  86014-5 0  9994
2 25732  98.9175  94.6129 0037024 202.0599 286.2124 14.17688609127953
Epoch (UTC): 27 February 2021 11:32:30
Eccentricity: 0.0037024
inclination: 98.9175°
perigee height: 806 km
apogee height: 860 km
right ascension of ascending node: 94.6129°
argument of perigee: 202.0599°
revolutions per day: 14.17688609
mean anomaly at epoch: 286.2124°
orbit number at epoch: 12795

The dashed part of the orbit path shows where the satellite is in the earth's shadow,  

DLR